Cloud_Cover
70 100 90 10 92 100 100 100 56 100 30 86 25 72 22 26 26 21 20 5 1 0 0 0 0 0 0 0 0 0 0 0 0 0 0 0 0 1 5 3 3 40 2 7 5 5 5
66 100 83 9 0 9 4 100 2 100 82 100 100 30 5 20 24 20 8 0 0 0 0 0 0 35 0 0 0 0 0 0 0 0 0 0 0 0 0 0 2 0 0 5 5 8 12
88 100 100 73 20 44 34 100 88 100 100 98 92 19 14 21 19 0 0 5 8 1 0 0 0 0 0 0 0 0 0 0 0 0 0 0 0 0 0 0 0 0 4 5 5 4 25
8 99 100 97 2 32 95 58 6 100 100 100 46 20 13 12 10 3 0 0 0 0 0 0 0 0 0 0 0 0 0 0 0 0 0 0 0 0 0 0 0 0 4 98 19 1 0
11 37 100 71 97 59 94 3 100 100 100 92 14 13 4 14 6 0 0 2 0 0 0 1 8 0 0 0 0 0 0 0 0 0 0 0 0 0 0 0 4 8 95 36 5 0 0
11 100 100 72 100 88 45 100 100 100 30 9 1 0 5 10 0 0 3 11 16 30 19 0 0 0 0 0 0 0 0 0 0 0 0 0 0 0 0 4 10 100 79 42 5 4 0
100 99 0 100 98 98 100 100 94 0 2 14 8 0 2 51 0 25 43 0 0 0 0 0 0 0 0 0 0 0 0 0 0 0 0 0 0 0 0 5 1 5 5 5 5 3 0
90 8 69 99 83 99 100 100 1 9 9 5 1 100 100 29 0 3 12 0 0 0 0 0 0 0 0 0 0 0 0 0 0 0 0 0 0 0 0 0 0 0 0 5 5 3 0
88 88 100 29 100 87 6 69 0 1 0 7 47 83 8 0 7 39 0 0 0 0 0 0 0 0 0 0 0 0 0 0 0 0 0 0 0 0 0 0 0 0 0 2 5 3 0
100 100 52 100 94 52 98 52 0 0 0 50 100 86 0 1 47 0 0 0 0 0 0 0 0 0 0 0 0 0 0 0 0 0 0 0 0 0 0 0 0 0 0 0 0 0 0
100 100 100 92 99 100 80 0 1 69 100 100 100 82 0 32 0 0 0 0 0 0 0 0 0 0 0 0 0 0 0 0 0 0 0 0 0 0 0 0 0 0 0 0 0 0 0
100 63 33 53 0 0 2 59 100 100 100 100 100 86 46 0 0 0 0 0 0 0 0 0 0 0 0 0 0 0 0 0 0 0 0 0 0 0 0 0 0 0 0 0 0 0 0
83 70 0 4 11 40 100 100 100 100 100 96 100 98 42 0 0 0 0 0 0 0 0 0 0 0 0 0 0 0 0 0 0 0 0 0 0 0 0 0 0 0 0 0 0 0 0
10 0 0 50 100 100 100 100 100 100 100 100 60 79 1 0 0 0 0 0 0 0 0 0 0 0 0 0 0 0 0 0 0 0 0 0 0 0 0 0 0 0 0 0 0 0 5
19 12 0 0 3 100 99 40 98 100 100 62 33 0 0 0 0 0 0 0 0 0 0 0 0 0 0 0 0 0 0 0 0 0 0 0 0 0 0 0 0 0 0 0 0 0 0
16 14 0 0 0 98 7 9 30 7 5 38 0 0 0 0 0 0 0 0 0 0 0 0 0 0 0 0 0 0 0 0 0 0 0 0 0 0 0 0 0 0 0 0 0 0 0
28 2 0 0 0 0 13 8 6 0 0 0 0 0 0 0 0 0 0 0 0 0 0 0 0 0 0 0 0 0 0 0 0 0 0 0 0 0 0 0 0 0 0 0 0 0 0
4 0 0 1 0 0 1 0 0 0 24 55 0 0 0 0 0 0 0 0 0 0 0 0 0 0 0 0 0 0 0 0 0 0 0 2 0 1 2 4 0 0 0 0 0 0 0
74 100 92 75 14 0 0 0 0 0 18 0 1 1 0 0 0 0 0 0 0 0 0 0 0 0 0 0 0 0 0 0 0 0 0 4 0 1 6 18 55 1 0 0 0 0 0
96 100 100 100 99 9 0 0 0 0 0 9 2 0 0 0 0 0 0 0 0 0 0 0 0 0 0 0 0 4 0 1 0 0 0 0 0 0 4 90 73 69 14 2 0 0 1
99 100 100 100 100 60 0 0 0 0 0 9 0 11 4 0 0 0 0 0 0 0 0 0 0 0 0 0 4 4 1 3 5 0 0 0 0 4 5 5 58 60 14 17 5 1 0
100 100 100 100 100 97 100 5 0 0 9 0 0 0 0 0 0 0 0 0 0 0 0 0 0 5 0 0 5 40 9 5 5 5 5 4 5 6 0 5 5 5 5 5 29 35 54
100 100 100 100 100 100 100 6 0 0 0 0 0 0 0 0 0 0 0 0 0 0 0 0 3 0 0 0 0 1 3 3 2 4 1 0 1 5 13 74 100 51 27 35 28 54 100
100 100 100 100 100 100 100 22 0 0 11 0 0 0 0 0 0 0 0 0 0 0 0 0 0 0 0 0 0 0 0 0 0 0 0 0 0 0 0 5 4 5 100 100 86 44 43
92 100 100 100 100 100 88 10 0 0 0 0 0 0 0 0 0 0 0 0 0 0 0 0 0 0 0 0 0 0 0 0 0 0 0 0 0 0 3 0 0 1 8 43 77 2 5
100 100 100 100 100 100 100 47 7 1 0 0 0 0 0 0 0 0 0 0 0 0 0 0 0 0 0 0 0 0 0 0 2 4 1 1 4 1 4 5 1 4 58 62 5 4 5
82 100 100 100 100 100 100 18 3 0 0 0 0 0 0 0 0 0 0 0 0 0 0 0 0 0 0 0 0 0 0 4 4 5 5 5 24 9 10 6 5 5 5 55 55 12 47
86 100 100 100 100 100 100 33 0 0 0 0 0 0 0 0 0 0 0 0 0 0 0 0 0 0 0 0 0 0 0 0 0 2 2 4 5 33 94 100 96 96 86 82 72 99 50
94 71 91 100 100 100 100 100 33 0 0 0 0 0 0 0 0 0 0 0 0 0 0 0 0 0 0 0 0 0 0 3 4 0 3 4 5 5 17 72 100 18 84 33 19 8 90